TimeEST,TemperatureF,Dew PointF,Humidity,Sea Level PressureIn,VisibilityMPH,Wind Direction,Wind SpeedMPH,Gust SpeedMPH,PrecipitationIn,Events,Conditions,WindDirDegrees,DateUTC
12:56 AM,12.0,9.0,88,30.49,5.0,Calm,Calm,-,N/A,,Clear,0,2013-01-27 05:56:00
1:56 AM,14.0,10.9,88,30.51,5.0,Calm,Calm,-,N/A,,Partly Cloudy,0,2013-01-27 06:56:00
2:56 AM,14.0,12.0,92,30.51,5.0,Calm,Calm,-,N/A,,Clear,0,2013-01-27 07:56:00
3:56 AM,9.0,8.1,96,30.50,2.5,SSE,3.5,-,N/A,,Clear,150,2013-01-27 08:56:00
4:22 AM,8.6,6.8,92,30.43,1.8,Calm,Calm,-,N/A,,Clear,0,2013-01-27 09:22:00
4:32 AM,10.4,6.8,85,30.42,2.0,Calm,Calm,-,N/A,,Clear,0,2013-01-27 09:32:00
4:37 AM,8.6,6.8,92,30.42,1.0,Calm,Calm,-,N/A,,Clear,0,2013-01-27 09:37:00
4:45 AM,8.6,6.8,92,30.43,0.8,Calm,Calm,-,N/A,,Clear,0,2013-01-27 09:45:00
4:56 AM,8.1,6.1,92,30.51,0.5,Calm,Calm,-,N/A,Fog,Light Freezing Fog,0,2013-01-27 09:56:00
5:06 AM,8.6,6.8,92,30.45,1.0,Calm,Calm,-,N/A,,Clear,0,2013-01-27 10:06:00
5:20 AM,6.8,6.8,100,30.47,2.0,North,4.6,-,N/A,,Clear,10,2013-01-27 10:20:00
5:29 AM,8.6,6.8,92,30.45,3.0,Calm,Calm,-,N/A,,Clear,0,2013-01-27 10:29:00
5:56 AM,3.9,1.0,88,30.52,4.0,Calm,Calm,-,N/A,,Clear,0,2013-01-27 10:56:00
6:35 AM,5.0,3.2,92,30.45,2.5,ESE,4.6,-,N/A,,Clear,110,2013-01-27 11:35:00
6:46 AM,3.2,1.4,92,30.44,3.0,ESE,3.5,-,N/A,,Clear,120,2013-01-27 11:46:00
6:56 AM,3.9,1.9,91,30.51,3.0,ESE,4.6,-,N/A,,Clear,120,2013-01-27 11:56:00
7:47 AM,6.8,3.2,85,30.46,2.5,Calm,Calm,-,N/A,,Clear,0,2013-01-27 12:47:00
7:56 AM,5.0,3.0,92,30.55,2.0,Calm,Calm,-,N/A,,Clear,0,2013-01-27 12:56:00
8:56 AM,10.0,9.0,95,30.55,2.5,East,3.5,-,N/A,,Clear,100,2013-01-27 13:56:00
9:39 AM,15.8,12.2,86,30.47,3.0,SE,4.6,-,N/A,,Clear,130,2013-01-27 14:39:00
9:56 AM,17.1,14.0,88,30.55,4.0,SE,4.6,-,N/A,,Clear,130,2013-01-27 14:56:00
10:56 AM,21.9,14.0,72,30.53,7.0,SSE,10.4,-,N/A,,Clear,150,2013-01-27 15:56:00
11:56 AM,24.1,15.1,69,30.52,9.0,SSE,9.2,-,N/A,,Clear,150,2013-01-27 16:56:00
12:56 PM,26.1,16.0,66,30.49,8.0,South,8.1,-,N/A,,Clear,180,2013-01-27 17:56:00
1:56 PM,27.0,17.1,66,30.45,8.0,SSE,6.9,-,N/A,,Partly Cloudy,160,2013-01-27 18:56:00
2:56 PM,28.0,18.0,66,30.43,7.0,SSE,8.1,-,N/A,,Partly Cloudy,160,2013-01-27 19:56:00
3:56 PM,28.0,19.0,69,30.42,7.0,SSE,9.2,-,N/A,,Clear,150,2013-01-27 20:56:00
4:56 PM,28.0,19.0,69,30.40,8.0,SSE,8.1,-,N/A,,Clear,150,2013-01-27 21:56:00
5:56 PM,28.0,19.0,69,30.40,9.0,SSE,5.8,-,N/A,,Mostly Cloudy,160,2013-01-27 22:56:00
6:56 PM,28.9,19.0,67,30.41,9.0,SSE,5.8,-,N/A,,Overcast,160,2013-01-27 23:56:00
7:56 PM,28.9,19.0,67,30.38,9.0,SE,9.2,-,N/A,,Overcast,130,2013-01-28 00:56:00
8:56 PM,28.9,19.0,67,30.38,9.0,SSE,8.1,-,N/A,,Overcast,150,2013-01-28 01:56:00
9:56 PM,28.9,19.9,69,30.33,10.0,SSE,8.1,-,0.00,,Overcast,150,2013-01-28 02:56:00
10:56 PM,28.9,21.0,72,30.32,9.0,SSE,8.1,-,0.00,,Overcast,160,2013-01-28 03:56:00
11:56 PM,30.0,23.0,75,30.27,7.0,SSE,6.9,-,0.01,,Overcast,150,2013-01-28 04:56:00